Content
SEND FEEDBACK

Daily
Averages
Monthly
Summary
Canada

VANCOUVER, BRITISH COLUMBIA


Home > North America > Canada > British Columbia
Elevation: 7 feet     Latitude: 49 11N     Longitude: 123 10W

WEATHER
 
SELECT A DAY
Number of Records: 253,943;   Date Range: 5/15/97 - 11/20/14
 
SHARE

PRINT THIS DATA

[ ← Previous Day ]
WEATHER ALMANAC - JANUARY 16, 2013
[ Next Day → ]
[ °C ]   °F
Weather ElementAverageHighLow
Temperature38 °F39.2 °F (2:15 am)35.6 °F (8:15 pm)
Dewpoint32.3 °F35.6 °F (1:35 am)30.2 °F (8:15 am)
Humidity79.8 %93 % (1:35 am)75 % (5:15 am)
Barometer30.60 in30.68 in (2:15 am)30.53 in (10:15 pm)
Wind Speed2.4 mph5.8 mph (12:55 pm)
Weather ElementAverage
Visibility10 mi
Wind DirectionENE (78.1 °)

Weather ElementTotal
Precipitation---
Heating Degree Days27.6 (Base 65)
Averaged from 62 records on January 16, 2013
WEATHER CONDITIONS BREAKOUT
WIND DIRECTION BREAKOUT
WEATHER BY HOUR - JANUARY 16, 2013
[ °C ]   °F
Local TimeTemperatureDewpointHumidityBarometerVisibilityWind DirectionWind SpeedGust SpeedPrecipitationEventsConditions
12:35 AM37.4 °F33.8 °F87 %30.67 in10.0 miCalmOvercast
1:15 AM37.4 °F33.8 °F87 %30.67 in10.0 miCalmOvercast
1:35 AM37.4 °F35.6 °F93 %30.67 in10.0 miCalmOvercast
2:15 AM39.2 °F35.6 °F87 %30.68 in10.0 miCalmOvercast
2:55 AM39.2 °F35.6 °F87 %30.68 in10.0 miCalmOvercast
3:15 AM37.4 °F33.8 °F87 %30.68 in10.0 miCalmOvercast
3:35 AM37.4 °F33.8 °F87 %30.67 in10.0 miCalmOvercast
3:55 AM37.4 °F33.8 °F87 %30.67 in10.0 miCalmOvercast
4:15 AM37.4 °F33.8 °F87 %30.67 in10.0 miCalmOvercast
4:35 AM37.4 °F32.0 °F81 %30.66 in10.0 miCalmOvercast
4:55 AM37.4 °F32.0 °F81 %30.65 in10.0 miCalmOvercast
5:15 AM39.2 °F32.0 °F75 %30.65 in10.0 miCalmOvercast
5:55 AM37.4 °F32.0 °F81 %30.64 in10.0 miCalmOvercast
6:15 AM37.4 °F32.0 °F81 %30.63 in10.0 miCalmOvercast
6:35 AM37.4 °F32.0 °F81 %30.63 in10.0 miNorthOvercast
7:15 AM37.4 °F32.0 °F81 %30.63 in10.0 miCalmOvercast
7:55 AM37.4 °F32.0 °F81 %30.64 in10.0 miCalmOvercast
8:15 AM37.4 °F30.2 °F75 %30.64 in10.0 miEast (80°)3.5 mphOvercast
8:35 AM37.4 °F30.2 °F75 %30.64 in10.0 miCalmOvercast
8:55 AM37.4 °F32.0 °F81 %30.64 in10.0 miCalmOvercast
9:15 AM39.2 °F32.0 °F75 %30.64 in10.0 miCalmOvercast
9:35 AM39.2 °F32.0 °F75 %30.64 in10.0 miEast (100°)4.6 mphOvercast
9:55 AM39.2 °F32.0 °F75 %30.64 in10.0 miCalmOvercast
10:15 AM39.2 °F32.0 °F75 %30.64 in10.0 miNorthOvercast
10:35 AM39.2 °F32.0 °F75 %30.64 in10.0 miNE (40°)3.5 mphOvercast
10:55 AM39.2 °F32.0 °F75 %30.63 in10.0 miCalmOvercast
11:15 AM39.2 °F32.0 °F75 %30.63 in10.0 miNNE (30°)3.5 mphOvercast
11:35 AM39.2 °F32.0 °F75 %30.63 in10.0 miNE (50°)3.5 mphMostly Cloudy
11:55 AM39.2 °F32.0 °F75 %30.62 in10.0 miNorth (10°)4.6 mphMostly Cloudy
12:15 PM39.2 °F32.0 °F75 %30.61 in10.0 miCalmMostly Cloudy
12:35 PM39.2 °F32.0 °F75 %30.61 in10.0 miCalmPartly Cloudy
12:55 PM39.2 °F32.0 °F75 %30.60 in10.0 miNNE (20°)5.8 mphClear
1:35 PM39.2 °F32.0 °F75 %30.59 in10.0 miNE (40°)3.5 mphScattered Clouds
1:55 PM39.2 °F32.0 °F75 %30.59 in10.0 miCalmPartly Cloudy
2:15 PM39.2 °F32.0 °F75 %30.59 in10.0 miNNE (20°)4.6 mphClear
2:55 PM39.2 °F32.0 °F75 %30.58 in10.0 miCalmClear
3:15 PM39.2 °F32.0 °F75 %30.58 in10.0 miNNE (20°)4.6 mphClear
3:35 PM39.2 °F32.0 °F75 %30.58 in10.0 miNorth (360°)4.6 mphClear
3:55 PM39.2 °F32.0 °F75 %30.58 in10.0 miNorth (10°)4.6 mphPartly Cloudy
4:15 PM39.2 °F32.0 °F75 %30.57 in10.0 miNorth (10°)4.6 mphScattered Clouds
4:35 PM37.4 °F32.0 °F81 %30.58 in10.0 miNorth (10°)4.6 mphPartly Cloudy
4:55 PM37.4 °F32.0 °F81 %30.58 in10.0 miNorth (360°)3.5 mphPartly Cloudy
5:15 PM37.4 °F32.0 °F81 %30.58 in10.0 miNorth (360°)3.5 mphClear
5:35 PM37.4 °F32.0 °F81 %30.57 in10.0 miNorth (10°)3.5 mphScattered Clouds
5:55 PM37.4 °F32.0 °F81 %30.57 in10.0 miNNE (20°)5.8 mphMostly Cloudy
6:15 PM37.4 °F32.0 °F81 %30.57 in10.0 miNorth (10°)3.5 mphMostly Cloudy
6:35 PM37.4 °F32.0 °F81 %30.57 in10.0 miNorth (10°)4.6 mphMostly Cloudy
6:55 PM37.4 °F32.0 °F81 %30.57 in10.0 miNorth (10°)4.6 mphMostly Cloudy
7:15 PM37.4 °F32.0 °F81 %30.56 in10.0 miNorth (360°)5.8 mphOvercast
7:55 PM37.4 °F32.0 °F81 %30.55 in10.0 miNorth (360°)5.8 mphClear
8:15 PM35.6 °F32.0 °F87 %30.55 in10.0 miNorth (10°)3.5 mphClear
8:35 PM37.4 °F32.0 °F81 %30.55 in10.0 miCalmClear
8:55 PM37.4 °F32.0 °F81 %30.54 in10.0 miNorth (360°)4.6 mphClear
9:15 PM37.4 °F32.0 °F81 %30.54 in10.0 miNorth (10°)4.6 mphClear
9:35 PM37.4 °F32.0 °F81 %30.55 in10.0 miNorth (360°)5.8 mphClear
9:55 PM37.4 °F32.0 °F81 %30.54 in10.0 miCalmClear
10:15 PM37.4 °F32.0 °F81 %30.53 in10.0 miNorth (360°)3.5 mphClear
10:35 PM37.4 °F32.0 °F81 %30.53 in10.0 miNorth (360°)3.5 mphClear
10:55 PM37.4 °F32.0 °F81 %30.53 in10.0 miNorth (360°)4.6 mphClear
11:15 PM37.4 °F32.0 °F81 %30.54 in10.0 miCalmClear
11:35 PM37.4 °F32.0 °F81 %30.53 in10.0 miNorth (360°)4.6 mphClear
11:55 PM37.4 °F32.0 °F81 %30.53 in10.0 miNorth (360°)5.8 mphClear
Hourly data recorded from CZBB, located miles away from Vancouver, British Columbia







STORIES FROM OUR PARTNERS